Date,TemperatureHighF,TemperatureAvgF,TemperatureLowF,DewpointHighF,DewpointAvgF,DewpointLowF,HumidityHigh,HumidityAvg,HumidityLow,PressureMaxIn,PressureMinIn,WindSpeedMaxMPH,WindSpeedAvgMPH,GustSpeedMaxMPH,PrecipitationSumIn
2012-1-1,33,28,19,32,24,12,97,85,71,0.00,40.00,12,6,26,0.00
2012-1-2,20,13,-3,13,4,-8,79,68,51,0.00,40.00,13,8,25,0.00
2012-1-3,17,7,-4,2,-3,-10,79,65,37,0.00,40.00,8,4,17,0.00
2012-1-4,30,17,-1,21,11,-6,90,79,67,0.00,40.00,8,3,17,0.00
2012-1-5,38,25,11,26,18,8,89,76,50,0.00,40.00,7,2,14,0.00
2012-1-6,49,39,28,30,27,24,84,62,41,0.00,40.00,10,6,21,0.00
2012-1-7,34,27,18,29,20,13,85,74,65,0.00,40.00,8,5,17,0.00
2012-1-8,36,24,17,21,16,12,90,71,45,0.00,40.00,8,2,16,0.00
2012-1-9,45,35,18,26,24,15,89,65,45,0.00,40.00,10,6,20,0.00
2012-1-10,47,32,19,28,24,17,93,77,46,0.00,40.00,7,2,15,0.00
2012-1-11,45,32,22,32,27,20,93,83,59,0.00,40.00,6,1,11,0.00
2012-1-12,30,19,14,27,14,9,88,81,77,0.00,40.00,8,6,20,0.00
2012-1-13,18,14,10,12,5,0,81,68,57,0.00,40.00,9,6,24,0.00
2012-1-14,17,11,6,6,3,1,82,70,55,0.00,40.00,5,2,10,0.00
2012-1-15,29,16,2,25,10,-2,85,79,70,0.00,40.00,10,4,20,0.00
2012-1-16,32,29,26,24,22,17,83,75,68,0.00,40.00,10,5,20,0.00
2012-1-17,26,16,10,18,9,1,87,72,61,0.00,40.00,9,6,23,0.00
2012-1-18,21,12,2,7,0,-3,83,60,36,0.00,40.00,8,5,19,0.00
2012-1-19,12,1,-8,8,-12,-22,84,55,37,0.00,40.00,12,7,24,0.00
2012-1-20,7,-5,-16,-15,-21,-25,64,46,22,0.00,40.00,5,3,12,0.00
2012-1-21,19,2,-17,2,-10,-25,69,57,43,0.00,40.00,5,2,13,0.00
2012-1-22,30,24,13,29,21,0,96,88,55,0.00,40.00,9,6,20,0.00
2012-1-23,35,30,21,31,27,17,97,92,82,0.00,40.00,9,5,20,0.00
2012-1-24,26,19,5,18,14,1,87,78,70,0.00,40.00,10,6,20,0.00
2012-1-25,37,21,4,24,16,-1,88,81,59,0.00,40.00,5,2,11,0.00
2012-1-26,31,29,27,28,26,24,91,88,83,0.00,40.00,8,5,14,0.00
2012-1-27,44,32,22,28,20,8,95,66,29,0.00,40.00,8,5,20,0.00
2012-1-28,29,22,17,28,14,9,95,70,57,0.00,40.00,10,7,22,0.00
2012-1-29,19,14,-12,12,4,-19,80,66,50,0.00,40.00,9,5,20,0.00
2012-1-30,23,12,-15,21,8,-23,92,84,67,0.00,40.00,5,1,10,0.00
2012-1-31,37,30,22,32,27,20,94,87,75,0.00,40.00,7,2,21,0.00
2012-2-1,35,30,21,29,25,19,93,80,69,0.00,40.00,11,4,21,0.00
2012-2-2,35,29,21,29,25,19,94,85,71,0.00,40.00,4,2,14,0.00
2012-2-3,42,32,15,29,24,12,90,73,49,0.00,40.00,5,2,13,0.00
2012-2-4,49,29,8,24,17,4,89,63,33,0.00,40.00,8,4,16,0.00
2012-2-5,44,33,28,24,22,20,79,64,40,0.00,40.00,7,4,16,0.00
2012-2-6,43,32,25,26,21,16,79,65,49,0.00,40.00,8,6,19,0.00
2012-2-7,29,19,5,20,6,-3,80,57,30,0.00,40.00,8,5,17,0.00
2012-2-8,39,19,-2,-2,-8,-12,73,38,11,0.00,40.00,6,3,15,0.00
2012-2-9,42,26,14,13,2,-3,59,38,17,0.00,40.00,7,5,17,0.00
2012-2-10,27,12,-1,21,1,-8,82,63,43,0.00,40.00,9,6,21,0.00
2012-2-11,18,9,-4,2,-3,-10,73,59,43,0.00,40.00,10,6,22,0.00
2012-2-12,38,21,9,2,-4,-10,66,38,13,0.00,40.00,10,7,20,0.00
2012-2-13,38,24,6,22,2,-8,85,41,24,0.00,40.00,7,4,14,0.00
2012-2-14,35,28,21,23,21,19,93,78,55,0.00,40.00,4,1,11,0.00
2012-2-15,44,32,26,28,25,20,90,76,52,0.00,40.00,5,2,10,0.00
2012-2-16,42,32,26,28,21,15,93,67,35,0.00,40.00,9,4,20,0.00
2012-2-17,38,28,19,27,19,15,91,69,46,0.00,40.00,5,3,14,0.00
2012-2-18,31,21,6,17,12,2,87,69,43,0.00,40.00,6,3,14,0.00
2012-2-19,42,18,-4,15,6,-10,83,62,33,0.00,40.00,5,1,10,0.00
2012-2-20,41,23,0,22,10,-6,84,60,29,0.00,40.00,9,4,17,0.00
2012-2-21,34,31,28,31,27,21,91,85,73,0.00,40.00,8,6,22,0.00
2012-2-22,34,30,27,25,20,19,77,68,56,0.00,40.00,8,6,19,0.00
2012-2-23,34,29,26,23,19,17,83,68,50,0.00,40.00,5,2,10,0.00
2012-2-24,32,26,21,23,19,14,90,74,54,0.00,40.00,8,5,16,0.00
2012-2-25,27,21,8,17,11,4,84,67,48,0.00,40.00,8,4,18,0.00
2012-2-26,32,21,4,28,17,-1,89,84,79,0.00,40.00,12,5,24,0.00
2012-2-27,32,26,9,26,17,5,85,69,50,0.00,40.00,12,6,24,0.00
2012-2-28,30,21,7,27,17,3,94,84,73,0.00,40.00,6,3,12,0.00
2012-2-29,30,28,27,29,27,26,96,95,94,0.00,40.00,10,7,22,0.00
2012-3-1,32,29,26,30,28,25,97,95,93,0.00,40.00,5,2,11,0.00
2012-3-2,35,30,25,32,29,24,97,95,90,0.00,40.00,5,2,11,0.00
2012-3-3,29,24,11,28,20,7,96,86,76,0.00,40.00,8,5,19,0.00
2012-3-4,22,14,1,11,7,-4,84,74,59,0.00,40.00,5,3,12,0.00
2012-3-5,33,15,-10,19,7,-17,85,71,46,0.00,40.00,7,3,14,0.00
2012-3-6,44,33,23,32,25,19,94,75,56,0.00,40.00,8,6,17,0.00
2012-3-7,52,42,31,46,36,30,97,81,57,0.00,40.00,10,5,20,0.00
2012-3-8,36,30,24,30,18,10,86,65,35,0.00,40.00,10,6,24,0.00
2012-3-9,31,22,16,19,4,-4,82,48,23,0.00,40.00,12,6,31,0.00
2012-3-10,57,39,21,28,16,-100,60,43,26,0.00,40.00,10,6,21,0.00
2012-3-11,67,52,39,30,27,24,58,39,23,0.00,40.00,7,3,15,0.00
2012-3-12,49,44,40,46,40,29,98,89,48,0.00,40.00,6,4,12,0.00
2012-3-13,58,44,28,42,24,-1,98,57,9,0.00,40.00,12,6,24,0.00
2012-3-14,70,46,25,49,32,19,94,62,37,0.00,40.00,7,3,15,0.00
2012-3-15,64,48,33,38,27,21,96,52,23,0.00,40.00,6,3,14,0.00
2012-3-16,67,46,27,38,27,15,87,54,20,0.00,40.00,8,3,15,0.00
2012-3-17,79,58,38,57,47,33,97,71,39,0.00,40.00,12,4,22,0.00
2012-3-18,80,63,45,56,53,44,98,73,40,0.00,40.00,10,5,31,0.00
2012-3-19,79,65,51,57,53,49,94,69,44,0.00,40.00,9,5,21,0.00
2012-3-20,80,66,55,56,51,-100,95,66,36,0.00,40.00,10,6,25,0.00
2012-3-21,83,66,50,53,50,47,94,58,30,0.00,40.00,12,5,25,0.00
2012-3-22,58,50,48,51,39,-100,95,77,69,0.00,40.00,7,-62,12,0.00
2012-3-23,55,49,46,54,37,-100,98,88,93,0.00,40.00,5,-40,9,0.09
2012-3-24,69,53,45,50,45,40,98,76,50,0.00,40.00,6,2,11,0.09
2012-3-25,51,44,28,49,33,16,97,67,39,0.00,40.00,9,6,19,0.00
2012-3-26,47,31,17,18,13,4,87,51,23,0.00,40.00,7,4,15,0.00
2012-3-27,57,41,30,40,27,9,80,58,41,0.00,40.00,14,8,26,0.01
2012-3-28,57,42,34,41,32,28,84,68,52,0.00,40.00,11,7,24,0.01
2012-3-29,45,35,30,30,24,22,84,64,42,0.00,40.00,7,4,16,0.01
2012-3-30,34,32,29,32,28,22,95,87,73,0.00,40.00,8,5,16,0.02
2012-3-31,41,35,31,35,32,30,96,89,75,0.00,40.00,7,5,15,0.01
2012-4-1,59,45,35,40,36,31,95,76,41,0.00,40.00,7,4,15,0.01
2012-4-2,56,41,33,33,31,27,96,72,38,0.00,40.00,9,5,19,0.00
2012-4-3,60,45,31,38,32,22,90,64,27,0.00,40.00,8,3,18,0.01
2012-4-4,58,42,27,27,23,17,86,52,21,0.00,40.00,8,4,17,0.01
2012-4-5,50,36,24,24,18,12,84,52,22,0.00,40.00,7,4,15,0.00
2012-4-6,59,39,18,22,18,13,86,49,18,0.00,40.00,6,3,12,0.00
2012-4-7,62,44,24,42,26,21,90,55,21,0.00,40.00,9,4,19,0.01
2012-4-8,55,44,32,42,22,8,92,49,16,0.00,40.00,14,6,31,0.02
2012-4-9,48,36,26,25,20,17,83,56,30,0.00,40.00,11,5,24,0.00
2012-4-10,41,34,28,23,18,14,76,54,35,0.00,40.00,12,7,24,0.00
2012-4-11,50,38,28,27,24,17,86,60,38,0.00,40.00,7,4,17,0.00
2012-4-12,59,37,19,32,22,16,92,65,19,0.00,40.00,6,2,13,0.00
2012-4-13,59,44,22,31,26,18,91,55,21,0.00,40.00,10,5,20,0.00
2012-4-14,75,58,43,44,36,-100,72,48,24,0.00,40.00,10,5,24,0.00
2012-4-15,56,51,46,55,46,38,98,82,60,0.00,40.00,6,4,14,0.03
2012-4-16,60,41,24,59,36,15,98,84,67,0.00,40.00,12,6,25,0.81
2012-4-17,49,33,24,27,21,15,85,61,35,0.00,40.00,8,5,16,0.01
2012-4-18,52,40,30,47,36,27,94,86,72,0.00,40.00,11,6,22,0.47
2012-4-19,43,37,32,34,30,28,94,76,61,0.00,40.00,7,4,15,0.04
2012-4-20,48,37,28,31,25,10,84,64,22,0.00,40.00,10,5,21,0.00
2012-4-21,54,39,25,28,22,-100,92,59,22,0.00,40.00,8,4,16,0.00
2012-4-22,59,39,24,26,19,10,92,53,14,0.00,40.00,7,3,16,0.00
2012-4-23,58,40,22,23,15,5,87,45,12,0.00,40.00,10,4,21,0.00
2012-4-24,60,48,34,26,20,15,73,34,21,0.00,40.00,10,5,22,0.00
2012-4-25,51,40,26,40,29,22,95,67,32,0.00,40.00,9,2,17,0.26
2012-4-26,47,39,26,40,26,10,97,66,23,0.00,40.00,10,6,24,0.31
2012-4-27,55,35,19,25,16,5,90,55,13,0.00,40.00,7,3,15,0.00
2012-4-28,56,38,26,21,17,-100,74,49,20,0.00,40.00,7,4,14,0.00
2012-4-29,62,43,21,25,17,11,88,45,14,0.00,40.00,8,3,16,0.00
2012-4-30,53,44,38,42,36,10,95,75,25,0.00,40.00,5,2,11,0.09
2012-5-1,69,53,31,45,41,30,96,68,38,0.00,40.00,11,5,20,0.03
2012-5-2,78,59,48,56,50,45,97,75,35,0.00,40.00,7,4,16,0.09
2012-5-3,77,61,51,62,55,49,96,82,57,0.00,40.00,7,4,17,0.18
2012-5-4,60,49,42,49,40,36,93,73,47,0.00,40.00,10,5,17,0.01
2012-5-5,66,52,42,45,39,-100,87,64,45,0.00,40.00,8,5,16,0.00
2012-5-6,51,45,42,44,40,29,97,84,45,0.00,40.00,6,3,13,1.66
2012-5-7,65,52,45,52,47,44,98,87,52,0.00,40.00,5,2,9,0.67
2012-5-8,58,51,45,53,47,42,100,87,62,0.00,40.00,8,3,14,0.13
2012-5-9,63,50,35,42,33,21,88,58,24,0.00,40.00,9,5,17,0.06
2012-5-10,74,54,29,41,32,26,98,53,19,0.00,40.00,6,3,12,0.00
2012-5-11,77,58,36,52,44,36,99,64,33,0.00,40.00,10,5,22,0.00
2012-5-12,71,57,40,48,33,-100,80,48,14,0.00,40.00,7,4,15,0.00
2012-5-13,75,56,31,40,32,27,99,52,17,0.00,40.00,7,3,17,0.00
2012-5-14,86,64,38,44,39,36,95,47,18,0.00,40.00,7,3,16,0.00
2012-5-15,80,60,37,48,42,36,95,54,27,0.00,40.00,11,5,24,0.00
2012-5-16,65,48,30,37,30,21,100,58,19,0.00,40.00,7,4,16,0.00
2012-5-17,68,51,30,47,37,30,99,64,32,0.00,40.00,9,4,16,0.01
2012-5-18,87,68,53,49,44,37,63,44,24,0.00,40.00,9,6,18,0.01
2012-5-19,88,71,47,56,49,-100,97,53,25,0.00,40.00,11,5,24,0.00
2012-5-20,88,70,49,63,56,45,94,66,33,0.00,40.00,14,6,28,0.08
2012-5-21,68,55,39,45,37,27,92,57,23,0.00,40.00,8,5,21,0.03
2012-5-22,70,53,32,43,36,32,100,60,27,0.00,40.00,8,3,17,0.00
2012-5-23,73,58,40,48,43,39,98,60,36,0.00,40.00,10,5,21,0.00
2012-5-24,83,69,52,62,50,40,97,54,35,0.00,40.00,14,8,30,0.26
2012-5-25,76,64,49,62,48,40,97,62,27,0.00,40.00,8,5,22,0.26
2012-5-26,73,58,40,50,46,40,100,69,41,0.00,40.00,7,3,20,0.00
2012-5-27,73,62,52,65,59,49,100,90,72,0.00,40.00,10,4,19,0.88
2012-5-28,82,67,58,68,62,58,100,87,52,0.00,40.00,10,4,23,0.12
2012-5-29,65,57,48,59,50,45,100,81,50,0.00,40.00,8,4,20,0.14
2012-5-30,53,47,37,48,39,35,100,75,53,0.00,40.00,7,4,15,0.04
2012-5-31,65,48,30,42,34,28,100,65,28,0.00,40.00,6,2,13,0.00
2012-6-1,66,49,31,41,34,31,100,64,30,0.00,40.00,7,3,15,0.00
2012-6-2,65,55,46,46,40,-100,88,60,42,0.00,40.00,9,4,25,0.00
2012-6-3,78,63,47,50,45,42,91,56,29,0.00,40.00,8,4,19,0.00
2012-6-4,77,63,50,52,49,46,99,66,37,0.00,40.00,6,3,14,0.00
2012-6-5,74,58,42,52,47,41,100,70,35,0.00,40.00,7,3,19,0.00
2012-6-6,80,60,38,52,44,38,100,62,23,0.00,40.00,5,2,10,0.00
2012-6-7,83,64,41,60,50,41,99,65,30,0.00,40.00,5,2,10,0.00
2012-6-8,78,67,52,66,60,52,100,80,60,0.00,40.00,5,2,15,0.08
2012-6-9,92,75,60,65,59,-100,100,68,32,0.00,40.00,7,4,15,0.27
2012-6-10,89,75,54,61,58,54,100,61,34,0.00,40.00,11,6,22,0.01
2012-6-11,82,74,63,66,60,49,90,63,41,0.00,40.00,9,6,21,0.01
2012-6-12,63,55,39,49,41,34,96,61,36,0.00,40.00,8,5,19,0.01
2012-6-13,74,57,35,48,43,35,100,65,35,0.00,40.00,8,4,17,0.00
2012-6-14,66,58,46,56,49,44,97,74,52,0.00,40.00,10,4,20,0.09
2012-6-15,83,68,53,69,58,45,90,72,52,0.00,40.00,6,3,11,0.08
2012-6-16,83,66,55,66,57,-100,100,80,33,0.00,40.00,8,4,20,0.01
2012-6-17,82,68,52,67,54,48,100,65,31,0.00,40.00,7,4,17,0.01
2012-6-18,77,67,59,70,63,53,100,88,59,0.00,40.00,8,4,19,0.67
2012-6-19,84,71,58,72,66,58,100,86,60,0.00,40.00,8,3,16,0.27
2012-6-20,89,80,65,70,68,65,100,69,48,0.00,40.00,11,6,22,0.22
2012-6-21,78,68,54,65,58,45,100,73,35,0.00,40.00,8,4,18,0.49
2012-6-22,76,62,47,59,53,47,100,75,46,0.00,40.00,6,2,18,0.03
2012-6-23,80,62,46,61,55,46,100,82,46,0.00,40.00,8,2,14,0.07
2012-6-24,74,65,46,63,54,39,100,72,34,0.00,40.00,6,3,15,0.43
2012-6-25,77,60,40,50,44,40,100,64,30,0.00,40.00,5,2,12,0.02
2012-6-26,81,65,43,55,51,43,100,66,38,0.00,40.00,6,2,13,0.00
2012-6-27,87,70,49,69,59,49,100,73,44,0.00,40.00,8,3,17,0.00
2012-6-28,85,73,63,70,64,55,99,75,38,0.00,40.00,6,2,13,0.00
2012-6-29,89,74,57,62,55,50,91,58,27,0.00,40.00,7,3,19,0.00
2012-6-30,86,75,58,61,55,49,98,56,29,0.00,40.00,6,3,15,0.00
2012-7-1,90,72,51,64,57,51,100,65,30,0.00,40.00,4,2,11,0.00
2012-7-2,90,74,56,69,62,56,99,69,41,0.00,40.00,8,3,14,0.00
2012-7-3,94,78,65,73,67,63,97,74,39,0.00,40.00,6,3,22,1.03
2012-7-4,93,77,64,73,68,64,100,79,43,0.00,40.00,9,2,25,1.27
2012-7-5,94,79,61,71,66,59,100,70,39,0.00,40.00,5,3,12,0.16
2012-7-6,88,75,56,68,60,56,100,64,38,0.00,40.00,6,3,19,0.07
2012-7-7,82,70,58,63,59,56,99,73,41,0.00,40.00,6,3,12,0.40
2012-7-8,85,70,53,62,57,53,100,69,38,0.00,40.00,7,2,16,0.02
2012-7-9,78,65,52,60,56,52,100,76,47,0.00,40.00,8,2,17,0.01
2012-7-10,81,67,49,61,54,48,100,67,32,0.00,40.00,4,2,9,0.01
2012-7-11,88,70,50,61,56,50,100,66,33,0.00,40.00,6,3,14,0.00
2012-7-12,88,73,53,62,57,53,99,63,32,0.00,40.00,5,2,14,0.00
2012-7-13,89,74,54,64,59,54,99,64,32,0.00,40.00,8,3,15,0.00
2012-7-14,84,71,60,69,65,59,100,82,50,0.00,40.00,6,2,14,0.31
2012-7-15,91,75,60,70,65,60,100,76,42,0.00,40.00,4,2,13,0.15
2012-7-16,92,77,61,70,66,61,100,72,41,0.00,40.00,9,3,21,0.01
2012-7-17,76,72,59,68,64,58,97,77,60,0.00,40.00,6,3,14,0.00
2012-7-18,81,67,51,60,55,51,100,70,41,0.00,40.00,7,3,14,0.00
2012-7-19,77,66,58,60,57,52,97,75,47,0.00,40.00,5,3,11,0.02
2012-7-20,82,68,49,63,57,49,100,72,47,0.00,40.00,7,3,15,0.01
2012-7-21,88,74,59,69,62,55,96,70,36,0.00,40.00,5,3,13,0.02
2012-7-22,90,72,50,71,61,50,100,72,38,0.00,40.00,6,3,14,0.02
2012-7-23,88,78,64,69,64,61,95,64,42,0.00,40.00,8,4,18,0.00
2012-7-24,85,70,54,62,55,47,99,65,28,0.00,40.00,5,2,11,0.00
2012-7-25,71,65,59,69,62,54,99,91,74,0.00,40.00,6,3,22,0.92
2012-7-26,78,68,61,66,62,59,100,84,55,0.00,40.00,5,3,12,0.05
2012-7-27,77,66,50,62,58,49,98,79,46,0.00,40.00,6,3,12,0.28
2012-7-28,82,64,44,57,49,44,100,65,29,0.00,40.00,4,2,9,0.01
2012-7-29,85,68,49,65,59,49,100,76,47,0.00,40.00,6,2,12,0.00
2012-7-30,86,72,59,67,63,59,100,75,50,0.00,40.00,9,4,18,0.00
2012-7-31,81,68,56,61,57,51,99,72,35,0.00,40.00,6,3,16,0.00
2012-8-1,84,68,50,63,57,50,99,73,44,0.00,40.00,8,3,15,0.00
2012-8-2,87,76,63,65,61,57,93,63,36,0.00,40.00,5,4,13,0.00
2012-8-3,81,69,55,67,62,54,99,80,59,0.00,40.00,6,3,12,0.00
2012-8-4,83,72,65,67,65,61,100,80,56,0.00,40.00,9,4,19,0.01
2012-8-5,76,64,49,61,49,40,96,63,27,0.00,40.00,8,4,18,0.01
2012-8-6,85,66,45,58,53,44,99,68,37,0.00,40.00,6,3,16,0.00
2012-8-7,80,69,54,63,57,50,99,69,36,0.00,40.00,7,3,15,0.04
2012-8-8,68,58,46,61,54,46,100,87,59,0.00,40.00,3,1,7,0.07
2012-8-9,70,61,55,58,56,53,100,83,58,0.00,40.00,7,3,16,0.02
2012-8-10,70,61,52,54,49,45,92,67,40,0.00,40.00,7,5,18,0.00
2012-8-11,75,62,49,54,48,-100,97,65,36,0.00,40.00,8,4,18,0.00
2012-8-12,78,60,40,56,48,40,99,70,34,0.00,40.00,4,2,11,0.00
2012-8-13,82,65,55,62,57,52,99,79,35,0.00,40.00,5,2,13,0.30
2012-8-14,78,63,49,59,54,49,100,76,37,0.00,40.00,5,2,11,0.31
2012-8-15,81,63,45,62,53,45,100,76,40,0.00,40.00,7,3,14,0.00
2012-8-16,70,64,56,64,58,51,97,83,53,0.00,40.00,8,4,19,0.38
2012-8-17,70,58,46,53,44,36,99,66,29,0.00,40.00,10,5,20,0.08
2012-8-18,74,57,42,56,49,42,99,78,38,0.00,40.00,6,2,15,0.19
2012-8-19,71,58,44,56,48,41,100,72,34,0.00,40.00,5,2,12,0.13
2012-8-20,74,55,39,58,49,39,99,83,41,0.00,40.00,6,2,13,0.12
2012-8-21,80,60,42,58,51,42,100,76,34,0.00,40.00,4,2,10,0.01
2012-8-22,85,66,48,59,53,47,98,68,33,0.00,40.00,7,2,15,0.01
2012-8-23,78,63,49,68,59,49,99,89,50,0.00,40.00,5,2,12,0.08
2012-8-24,84,70,61,65,62,60,100,80,50,0.00,40.00,8,3,18,0.01
2012-8-25,89,74,57,64,58,50,99,63,26,0.00,40.00,10,4,22,0.00
2012-8-26,78,68,60,67,64,60,99,88,67,0.00,40.00,6,3,12,0.09
2012-8-27,81,66,52,60,55,52,100,73,39,0.00,40.00,6,3,16,0.03
2012-8-28,79,63,48,59,52,48,100,74,38,0.00,40.00,5,2,11,0.00
2012-8-29,86,67,46,66,57,46,100,76,43,0.00,40.00,6,3,14,0.00
2012-8-30,92,77,62,67,63,60,99,69,35,0.00,40.00,11,4,22,0.00
2012-8-31,83,71,50,66,53,44,92,59,26,0.00,40.00,6,3,14,0.00
2012-9-1,82,62,42,54,48,42,99,68,26,0.00,40.00,5,2,14,0.00
2012-9-2,81,62,41,57,51,41,99,73,38,0.00,40.00,8,3,14,0.00
2012-9-3,85,67,54,70,62,53,99,85,52,0.00,40.00,5,2,13,0.10
2012-9-4,83,69,58,68,64,58,100,86,54,0.00,40.00,7,3,13,0.01
2012-9-5,70,63,53,63,59,53,99,87,63,0.00,40.00,6,2,15,0.19
2012-9-6,78,62,46,56,50,46,100,71,32,0.00,40.00,7,2,16,0.02
2012-9-7,65,56,49,57,54,48,99,93,70,0.00,40.00,5,2,12,0.30
2012-9-8,65,54,47,52,48,43,99,82,49,0.00,40.00,7,3,16,0.01
2012-9-9,69,56,42,53,47,41,100,76,40,0.00,40.00,6,3,16,0.01
2012-9-10,75,58,35,53,46,35,99,69,37,0.00,40.00,8,4,17,0.00
2012-9-11,82,67,51,57,53,49,95,64,38,0.00,40.00,10,5,20,0.00
2012-9-12,72,62,49,58,49,37,96,66,31,0.00,40.00,6,3,13,0.06
2012-9-13,66,53,39,50,44,34,97,77,31,0.00,40.00,7,2,17,0.10
2012-9-14,66,51,37,47,41,36,99,75,38,0.00,40.00,7,2,15,0.03
2012-9-15,72,52,30,53,42,30,99,74,39,0.00,40.00,6,2,14,0.00
2012-9-16,81,62,42,52,46,42,99,63,28,0.00,40.00,10,3,19,0.00
2012-9-17,62,53,43,54,49,41,97,88,61,0.00,40.00,7,2,18,0.65
2012-9-18,53,43,32,41,37,32,99,84,47,0.00,40.00,9,3,21,0.12
2012-9-19,50,41,29,48,38,29,99,92,64,0.00,40.00,7,2,20,0.41
2012-9-20,56,49,40,46,44,40,99,86,57,0.00,40.00,7,3,17,0.18
2012-9-21,60,44,32,45,40,32,100,86,46,0.00,40.00,6,2,15,0.28
2012-9-22,52,41,29,41,33,-100,99,81,48,0.00,40.00,10,4,25,0.01
2012-9-23,52,41,30,38,35,29,98,82,48,0.00,40.00,7,3,16,0.03
2012-9-24,70,49,29,41,33,29,99,62,27,0.00,40.00,10,4,24,0.01
2012-9-25,65,47,30,42,37,30,99,74,36,0.00,40.00,4,2,11,0.00
2012-9-26,57,43,29,39,34,29,98,75,38,0.00,40.00,6,2,14,0.00
2012-9-27,64,44,26,42,34,25,98,75,34,0.00,40.00,5,1,10,0.00
2012-9-28,73,48,30,41,35,29,98,69,24,0.00,40.00,5,1,11,0.00
2012-9-29,69,51,36,46,39,35,98,72,28,0.00,40.00,6,2,13,0.00
2012-9-30,66,46,30,44,38,29,99,76,39,0.00,40.00,5,2,13,0.00
2012-10-1,73,52,33,47,41,33,99,74,32,0.00,40.00,5,2,18,0.00
2012-10-2,68,51,34,48,41,34,98,74,33,0.00,40.00,5,2,11,0.00
2012-10-3,74,52,34,52,42,34,99,76,29,0.00,40.00,4,1,10,0.00
2012-10-4,72,50,37,52,39,29,99,71,30,0.00,40.00,9,4,22,0.00
2012-10-5,43,40,36,30,26,24,78,58,49,0.00,40.00,7,5,22,0.00
2012-10-6,42,36,32,32,30,25,90,77,52,0.00,40.00,9,4,20,0.01
2012-10-7,50,37,27,30,22,15,95,60,24,0.00,40.00,6,2,16,0.01
2012-10-8,54,41,22,31,25,17,85,55,35,0.00,40.00,10,5,25,0.01
2012-10-9,52,44,35,44,36,30,98,75,44,0.00,40.00,11,4,22,0.28
2012-10-10,41,34,26,34,27,20,94,75,45,0.00,40.00,8,5,22,0.04
2012-10-11,42,35,27,35,29,21,98,79,44,0.00,40.00,9,4,24,0.12
2012-10-12,49,35,20,31,22,17,96,65,29,0.00,40.00,8,3,16,0.01
2012-10-13,45,41,36,45,40,30,99,94,77,0.00,40.00,6,3,13,0.12
2012-10-14,46,44,41,45,42,37,99,95,86,0.00,40.00,9,4,22,0.36
2012-10-15,50,40,28,37,33,27,98,77,48,0.00,40.00,8,5,19,0.08
2012-10-16,54,43,30,47,40,29,98,91,71,0.00,40.00,6,3,14,0.04
2012-10-17,63,50,39,52,47,39,100,90,66,0.00,40.00,8,4,17,0.02
2012-10-18,54,50,43,53,48,41,98,95,83,0.00,40.00,9,5,19,0.66
2012-10-19,49,44,40,44,42,39,99,92,78,0.00,40.00,5,3,12,0.13
2012-10-20,58,47,34,45,41,34,98,83,51,0.00,40.00,5,2,13,0.07
2012-10-21,61,45,29,42,36,29,99,75,44,0.00,40.00,6,2,12,0.01
2012-10-22,64,51,38,45,43,37,98,77,49,0.00,40.00,7,2,14,0.01
2012-10-23,54,51,47,53,49,44,99,92,81,0.00,40.00,7,5,16,0.06
2012-10-24,60,56,53,60,56,53,100,100,99,0.00,40.00,7,4,13,0.07
2012-10-25,64,55,37,63,53,33,100,95,85,0.00,40.00,11,6,23,1.58
2012-10-26,42,36,32,33,26,22,85,68,50,0.00,40.00,8,4,18,0.09
2012-10-27,42,31,23,27,19,12,94,67,29,0.00,40.00,7,2,15,0.00
2012-10-28,46,30,18,27,20,16,94,72,33,0.00,40.00,4,1,9,0.00
2012-10-29,48,32,19,31,23,17,94,72,39,0.00,40.00,6,2,14,0.00
2012-10-30,41,35,33,29,23,21,82,62,44,0.00,40.00,10,8,28,0.00
2012-10-31,39,34,28,29,27,23,87,75,64,0.00,40.00,10,7,27,0.00
2012-11-1,41,34,28,28,24,21,87,68,52,0.00,40.00,9,6,20,0.00
2012-11-2,33,31,30,25,22,20,79,68,61,0.00,40.00,7,5,19,0.00
2012-11-3,35,32,30,25,23,22,77,71,64,0.00,40.00,4,3,12,0.00
2012-11-4,39,32,30,25,24,21,76,69,55,0.00,40.00,5,3,12,0.00
2012-11-5,33,28,19,23,21,18,94,76,66,0.00,40.00,4,2,10,0.00
2012-11-6,34,30,19,32,28,18,98,92,79,0.00,40.00,6,2,12,0.02
2012-11-7,39,36,33,37,35,32,99,97,90,0.00,40.00,3,0,7,0.01
2012-11-8,45,37,30,34,32,30,99,83,61,0.00,40.00,8,2,18,0.00
2012-11-9,42,38,34,38,34,30,91,84,73,0.00,40.00,6,3,14,0.00
2012-11-10,47,42,34,47,41,30,99,95,84,0.00,40.00,8,5,19,0.32
2012-11-11,59,52,38,54,50,36,100,93,81,0.00,40.00,8,4,18,1.03
2012-11-12,38,25,21,36,19,13,91,76,62,0.00,40.00,7,5,17,0.15
2012-11-13,37,27,21,19,17,15,81,69,43,0.00,40.00,5,3,14,0.00
2012-11-14,42,32,24,28,23,-100,83,69,54,0.00,40.00,7,2,13,0.00
2012-11-15,52,37,26,33,29,24,92,73,47,0.00,40.00,6,2,14,0.00
2012-11-16,41,28,18,24,21,16,93,75,44,0.00,40.00,3,1,9,0.00
2012-11-17,43,33,22,34,30,19,98,89,69,0.00,40.00,5,2,10,0.00
2012-11-18,49,37,26,39,33,25,99,85,57,0.00,40.00,6,3,14,0.00
2012-11-19,55,44,35,37,34,32,90,71,43,0.00,40.00,5,2,13,0.00
2012-11-20,56,42,36,39,37,35,99,83,49,0.00,40.00,4,1,10,0.00
2012-11-21,50,40,33,42,37,33,100,92,62,0.00,40.00,7,2,13,0.00
2012-11-22,63,49,33,41,39,33,100,72,43,0.00,40.00,9,4,17,0.00
2012-11-23,43,27,22,36,21,14,92,79,68,0.00,40.00,14,9,33,0.00
2012-11-24,28,21,18,18,13,11,88,70,51,0.00,40.00,9,4,22,0.00
2012-11-25,28,23,17,23,18,15,93,83,70,0.00,40.00,7,4,20,0.00
2012-11-26,23,20,10,18,15,5,87,79,56,0.00,40.00,8,4,17,0.00
2012-11-27,32,21,7,21,12,4,88,71,42,0.00,40.00,7,3,16,0.00
2012-11-28,30,23,19,20,13,9,87,65,44,0.00,40.00,9,4,23,0.00
2012-11-29,27,23,14,24,20,12,93,88,75,0.00,40.00,5,3,12,0.00
2012-11-30,28,25,20,25,21,12,95,84,70,0.00,40.00,6,4,15,0.00
2012-12-1,37,33,26,37,33,25,100,99,95,0.00,40.00,7,3,14,0.00
2012-12-2,37,36,35,37,35,33,100,97,92,0.00,40.00,4,2,12,0.00
2012-12-3,53,43,35,53,43,35,100,98,81,0.00,40.00,9,6,20,0.00
2012-12-4,43,32,22,38,21,9,81,64,41,0.00,40.00,11,7,23,0.00
2012-12-5,31,25,22,22,16,12,81,67,49,0.00,40.00,7,4,16,0.00
2012-12-6,37,32,27,34,27,-100,92,84,78,0.00,40.00,7,5,19,0.00
2012-12-7,34,29,25,28,21,18,86,74,65,0.00,40.00,5,3,13,0.00
2012-12-8,30,24,19,24,20,16,94,85,61,0.00,40.00,3,1,9,0.00
2012-12-9,27,20,11,24,17,8,93,88,78,0.00,40.00,5,3,14,0.00
2012-12-10,27,24,22,21,19,18,91,80,73,0.00,40.00,5,2,13,0.00
2012-12-11,22,20,17,18,15,10,92,81,70,0.00,40.00,5,3,14,0.00
2012-12-12,33,20,8,26,14,5,88,76,59,0.00,40.00,6,4,15,0.00
2012-12-13,41,33,27,27,23,20,87,69,43,0.00,40.00,5,2,11,0.00
2012-12-14,31,28,26,27,23,21,90,82,76,0.00,40.00,5,3,12,0.00
2012-12-15,37,33,28,35,32,25,99,95,87,0.00,40.00,8,6,20,0.00
2012-12-16,36,34,32,36,34,30,100,98,92,0.00,40.00,5,2,13,0.00
2012-12-17,32,28,26,30,24,20,92,83,75,0.00,40.00,6,4,13,0.00
2012-12-18,29,25,16,21,20,14,94,81,67,0.00,40.00,3,1,8,0.00
2012-12-19,35,23,12,24,19,9,93,83,60,0.00,40.00,6,2,12,0.00
2012-12-20,32,29,26,31,27,23,97,92,87,0.00,40.00,7,4,21,0.00
2012-12-21,29,24,19,27,19,14,93,83,78,0.00,40.00,11,8,26,0.00
2012-12-22,28,21,10,18,15,8,92,79,57,0.00,40.00,5,3,13,0.00
2012-12-23,24,18,3,19,11,0,89,75,55,0.00,40.00,8,5,23,0.00
2012-12-24,23,14,1,16,10,-3,89,82,72,0.00,40.00,5,2,12,0.00
2012-12-25,21,13,-5,12,8,-9,88,79,66,0.00,40.00,4,2,10,0.00
2012-12-26,23,10,-8,18,5,-13,89,82,75,0.00,40.00,5,2,13,0.00
2012-12-27,22,20,18,15,14,13,85,77,69,0.00,40.00,5,3,14,0.00
2012-12-28,26,20,13,19,16,11,93,85,72,0.00,40.00,3,2,6,0.00
2012-12-29,28,18,8,19,13,5,91,81,60,0.00,40.00,4,2,9,0.00
2012-12-30,23,19,15,15,10,7,86,70,51,0.00,40.00,5,3,11,0.00
2012-12-31,23,16,6,16,8,1,83,72,54,0.00,40.00,9,5,19,0.00
2013-1-1,20,13,9,10,2,-3,81,61,37,0.00,40.00,6,4,17,0.00